Location: ?????
(54.9266°N, 38.5527°E)
Time: 19:29:18
(UTC+00:00)

deb REX - Pass Details

Date: 24 September 2024
Orbit: 705 x 731 km, 89.8° (Epoch: 09 October)

Event Time Altitude Azimuth Distance (km) Brightness Sun altitude
Rises 01:08:24 0° 12° (NNE) 3,123 ? -18.4°
Reaches altitude 10° 01:12:12 10° 43° (NE) 2,193 ? -17.9°
Maximum altitude 01:14:11 12° 67° (ENE) 2,032 ? -17.7°
Drops below altitude 10° 01:16:09 10° 91° (E) 2,183 ? -17.4°
Sets 01:19:54 0° 122° (ESE) 3,094 ? -16.9°
